Miscellaneous Local Product
Issued by NWS North Platte, NE

Home | Current Version | Previous Version | Graphics & Text | Print | Product List | Glossary On
Versions: 1 2 3 4 5 6 7 8 9 10 11 12 13 14 15 16 17 18 19 20 21 22 23 24 25 26 27 28 29 30 31 32 33 34 35 36 37 38 39 40 41 42 43 44 45 46 47 48 49 50
000
AXUS43 KLBF 261110
MISLBF


WESTERN AND NORTH CENTRAL NEBRASKA HOURLY WEATHER ROUNDUP
NATIONAL WEATHER SERVICE NORTH PLATTE NE
600 AM CDT TUE JUL 26 2016

NOTE: "FAIR" INDICATES FEW OR NO CLOUDS BELOW 12,000 FEET WITH NO
SIGNIFICANT WEATHER AND/OR OBSTRUCTIONS TO VISIBILITY.

NOTE: STATIONS NOT REPORTING VARIABLES SUCH AS SKY/WEATHER OR
PRESSURE ARE PROVIDED BY RAWS AND APRS NETWORKS AND ARE NOT UNDER
NATIONAL WEATHER SERVICE QUALITY CONTROL.

...OBSERVATIONS IN AND NEAR THE EASTERN PANHANDLE OF NEBRASKA...

CITY           SKY/WX    TMP DP  RH WIND       PRES   REMARKS
PINE RIDGE     CLEAR     69  64  84 S16G23    30.01S
CHADRON        CLEAR     71  61  70 S8        30.00S
ALLIANCE       CLEAR     63  62  97 S12       30.06S
SIDNEY         CLEAR     61  60  97 SE5       30.12R
CRESCENT LAKE    N/A     65  64  96 S8          N/A
$$

...OBSERVATIONS IN NORTHERN NEBRASKA AND FAR SOUTHERN SOUTH DAKOTA...

CITY           SKY/WX    TMP DP  RH WIND       PRES   REMARKS
WINNER         FAIR      73  60  63 S17G25    30.01F
VALENTINE      CLEAR     68  62  81 S13       30.05S
THEDFORD       CLEAR     67  65  91 S10       30.10S
AINSWORTH      CLEAR     66  61  85 S10       30.07S
O`NEILL        CLEAR     65  61  88 S5        30.08S
ORD            CLEAR     62  59  90 CALM      30.08F
BROKEN BOW     CLEAR     63  61  93 S3        30.11R
VALENTINE NWR    N/A     64  62  93 S9          N/A
BUTTE            N/A     67  61  81 S7          N/A
HALSEY           N/A     67  61  81 S6          N/A
EWING            N/A     64  62  92 CALM        N/A
$$

...OBSERVATIONS IN SOUTHWEST NEBRASKA AND FAR NORTHEAST COLORADO...

CITY           SKY/WX    TMP DP  RH WIND       PRES   REMARKS
HOLYOKE          N/A     66  63  88 W10       30.12R
IMPERIAL       CLEAR     65  63  93 SE7       30.11S
OGALLALA       CLEAR     67  64  89 SE3       30.10S
NORTH PLATTE   CLEAR     63  62  97 SE6       30.11S
MCCOOK         CLEAR     66  63  90 SE5       30.10S
LEXINGTON      CLEAR     65  63  92 SE5       30.11S
STAPLETON        N/A     64  63  96 CALM        N/A
GOTHENBURG       N/A     64  60  88 SE3         N/A
CALLAWAY         N/A     62  61  96 S7          N/A
$$

...OBSERVATIONS IN CENTRAL LINCOLN COUNTY AREA...

CITY           SKY/WX    TMP DP  RH WIND       PRES   REMARKS
N.P. AIRPORT   CLEAR     63  62  97 SE6       30.11S
N.P. DOWNTOWN    N/A     68  65  89 CALM        N/A
N.P. HILLCREST   N/A     66  64  93 SE6         N/A
$$

...SOME OBSERVATIONS FROM AROUND THE REGION...

CITY           SKY/WX    TMP DP  RH WIND       PRES   REMARKS
DENVER         CLOUDY    69  45  41 SW13      30.14R
LARAMIE        CLEAR     54  38  54 S3        30.28S
CHEYENNE       CLOUDY    56  50  80 W6        30.18F
SCOTTSBLUFF    CLEAR     64  61  90 E8        30.05F
RAPID CITY     PTCLDY    67  60  78 SE7       29.99F
BISMARCK       CLEAR     70  68  93 NE7       29.95S
PIERRE         CLEAR     71  62  73 S6        29.95F
SIOUX FALLS    PTCLDY    70  62  76 SW8       30.06S
OMAHA          CLEAR     64  62  93 CALM      30.09R
GRAND ISLAND   CLEAR     63  61  93 S3        30.10S
KANSAS CITY    CLEAR     69  67  93 NE6       30.07R
WICHITA        CLOUDY    74  71  91 N7        30.04S
OKLAHOMA CITY  CLOUDY    74  71  91 NW6       29.98F
DALLAS         MOCLDY    77  71  82 CALM      29.95R
AMARILLO       CLEAR     67  60  78 W8        30.11F
DODGE CITY     MOCLDY    68  67  96 S6        30.08F FOG
HAYS           CLOUDY    68  61  77 E5        30.09R
GOODLAND       CLOUDY    67  65  93 S15       30.14R FOG
$$




USA.gov is the U.S. government's official web portal to all federal, state and local government web resources and services.